CPA954 VHHH-ZSQD

Flight info

Callsign CPA954
Flight time N/A
Altitude 35000
Route LEKEN V611 LELIM M503 TOLAK/K0922S1065 M503 BEGMO W13 PINOT B221 IDVEL IDV81A
Aircraft B77W/H-SDE1E2E3FGHIJ2J3J4J5M1RWXY/LB1D1

Departure

Time N/A
Airport Hong Kong International Airport (VHHH)

Arrival

Time 2026-04-21 23:39
Airport Qingdao Jiaodong International Airport (ZSQD)
Time Latitude Longitude Altitude Speed Heading
2026-04-21 23:10 34.22186 121.14333 28973 ft 458 kts 331°
2026-04-21 23:10 34.25153 121.12914 28973 ft 458 kts 331°
2026-04-21 23:11 34.31089 121.10074 28974 ft 459 kts 331°
2026-04-21 23:11 34.37013 121.07234 28967 ft 457 kts 330°
2026-04-21 23:12 34.42948 121.04383 28977 ft 456 kts 331°
2026-04-21 23:12 34.48838 121.01550 28982 ft 454 kts 331°
2026-04-21 23:13 34.54768 120.98691 28992 ft 457 kts 330°
2026-04-21 23:13 34.60642 120.95856 28991 ft 456 kts 330°
2026-04-21 23:14 34.66543 120.93004 28994 ft 456 kts 330°
2026-04-21 23:14 34.72456 120.90143 28998 ft 452 kts 330°
2026-04-21 23:15 34.78245 120.87337 28325 ft 448 kts 331°
2026-04-21 23:15 34.81132 120.85938 28021 ft 438 kts 331°
2026-04-21 23:15 34.83977 120.84556 28005 ft 443 kts 331°
2026-04-21 23:16 34.89749 120.81745 28011 ft 445 kts 331°
2026-04-21 23:16 34.95467 120.78960 27945 ft 440 kts 331°
2026-04-21 23:17 34.98273 120.77599 27301 ft 429 kts 331°
2026-04-21 23:17 35.01015 120.76260 26145 ft 430 kts 332°
2026-04-21 23:17 35.03806 120.74895 25002 ft 429 kts 333°
2026-04-21 23:17 35.06518 120.73570 24210 ft 419 kts 333°
2026-04-21 23:18 35.09179 120.72270 23541 ft 409 kts 333°
2026-04-21 23:18 35.11799 120.70988 22807 ft 401 kts 334°
2026-04-21 23:18 35.14359 120.69735 21937 ft 398 kts 334°
2026-04-21 23:18 35.16949 120.68469 21035 ft 395 kts 334°
2026-04-21 23:19 35.19472 120.67247 20531 ft 382 kts 334°
2026-04-21 23:19 35.21901 120.66069 20097 ft 388 kts 334°
2026-04-21 23:19 35.24482 120.64811 19602 ft 399 kts 334°
2026-04-21 23:19 35.27071 120.63553 19135 ft 402 kts 334°
2026-04-21 23:20 35.29665 120.62292 18566 ft 400 kts 335°
2026-04-21 23:20 35.32225 120.61047 18036 ft 398 kts 335°
2026-04-21 23:20 35.34829 120.59780 17518 ft 396 kts 335°
2026-04-21 23:20 35.37359 120.58548 17006 ft 394 kts 335°
2026-04-21 23:21 35.39911 120.57309 16482 ft 391 kts 335°
2026-04-21 23:21 35.42438 120.56091 15977 ft 389 kts 335°
2026-04-21 23:21 35.44947 120.54881 15451 ft 386 kts 336°
2026-04-21 23:21 35.47433 120.53679 14976 ft 382 kts 335°
2026-04-21 23:22 35.49878 120.52491 14707 ft 372 kts 336°
2026-04-21 23:22 35.52251 120.51336 14342 ft 367 kts 335°
2026-04-21 23:22 35.54636 120.50175 13877 ft 364 kts 336°
2026-04-21 23:22 35.56990 120.49026 13335 ft 364 kts 336°
2026-04-21 23:23 35.59343 120.47877 12749 ft 366 kts 337°
2026-04-21 23:23 35.61721 120.46716 12210 ft 365 kts 338°
2026-04-21 23:23 35.64059 120.45573 11707 ft 363 kts 338°
2026-04-21 23:23 35.66410 120.44424 11213 ft 360 kts 339°
2026-04-21 23:24 35.68742 120.43285 10763 ft 356 kts 339°
2026-04-21 23:24 35.70981 120.42188 10560 ft 333 kts 340°
2026-04-21 23:24 35.73044 120.41177 10516 ft 308 kts 340°
2026-04-21 23:24 35.74974 120.40231 10419 ft 288 kts 341°
2026-04-21 23:25 35.76775 120.39348 10257 ft 271 kts 341°
2026-04-21 23:25 35.78498 120.38503 10125 ft 255 kts 341°
2026-04-21 23:25 35.80147 120.37696 9681 ft 257 kts 342°
2026-04-21 23:25 35.81849 120.36865 9137 ft 268 kts 342°
2026-04-21 23:26 35.83562 120.36024 8973 ft 272 kts 342°
2026-04-21 23:26 35.85333 120.35154 8964 ft 277 kts 342°
2026-04-21 23:26 35.87147 120.34261 8792 ft 279 kts 342°
2026-04-21 23:26 35.88948 120.33375 8444 ft 279 kts 342°
2026-04-21 23:27 35.90748 120.32490 8118 ft 279 kts 342°
2026-04-21 23:27 35.92558 120.31599 7748 ft 279 kts 342°
2026-04-21 23:27 35.94347 120.30718 7407 ft 278 kts 342°
2026-04-21 23:27 35.96147 120.29831 7062 ft 277 kts 342°
2026-04-21 23:28 35.97890 120.28832 6712 ft 280 kts 333°
2026-04-21 23:28 35.99482 120.27419 6348 ft 283 kts 323°
2026-04-21 23:28 36.00963 120.25787 5950 ft 284 kts 320°
2026-04-21 23:28 36.02370 120.24126 5850 ft 273 kts 320°
2026-04-21 23:29 36.03714 120.22520 5786 ft 263 kts 320°
2026-04-21 23:29 36.05027 120.20955 5690 ft 262 kts 319°
2026-04-21 23:29 36.06376 120.19470 5562 ft 257 kts 333°
2026-04-21 23:29 36.07997 120.18563 5360 ft 256 kts 345°
2026-04-21 23:30 36.09694 120.17877 4961 ft 259 kts 346°
2026-04-21 23:30 36.11446 120.17200 4583 ft 262 kts 346°
2026-04-21 23:30 36.13170 120.16532 4227 ft 264 kts 346°
2026-04-21 23:30 36.14922 120.15849 3938 ft 262 kts 345°
2026-04-21 23:31 36.16636 120.15179 3899 ft 252 kts 346°
2026-04-21 23:31 36.18309 120.14526 3896 ft 250 kts 346°
2026-04-21 23:31 36.19913 120.13899 3897 ft 235 kts 346°
2026-04-21 23:31 36.21428 120.13293 3824 ft 220 kts 344°
2026-04-21 23:32 36.22661 120.12274 3653 ft 214 kts 310°
2026-04-21 23:32 36.23226 120.10600 3276 ft 213 kts 271°
2026-04-21 23:32 36.22880 120.08897 3195 ft 206 kts 231°
2026-04-21 23:32 36.21821 120.07785 3193 ft 197 kts 203°
2026-04-21 23:33 36.20573 120.07188 3183 ft 188 kts 179°
2026-04-21 23:33 36.19284 120.07201 3188 ft 181 kts 173°
2026-04-21 23:33 36.18044 120.07273 2998 ft 178 kts 172°
2026-04-21 23:33 36.16811 120.07346 2906 ft 174 kts 172°
2026-04-21 23:34 36.15640 120.07637 2880 ft 170 kts 145°
2026-04-21 23:34 36.14914 120.08754 2878 ft 171 kts 106°
2026-04-21 23:34 36.14991 120.10193 2885 ft 170 kts 75°
2026-04-21 23:34 36.15485 120.11544 2753 ft 180 kts 56°
2026-04-21 23:35 36.16505 120.12440 2581 ft 178 kts 30°
2026-04-21 23:35 36.17685 120.12952 2513 ft 179 kts 21°
2026-04-21 23:35 36.18899 120.13357 2542 ft 178 kts 20°
2026-04-21 23:35 36.20111 120.13654 2538 ft 179 kts
2026-04-21 23:36 36.21333 120.13377 2548 ft 183 kts 346°
2026-04-21 23:36 36.22568 120.12850 2439 ft 189 kts 345°
2026-04-21 23:36 36.23783 120.12363 2188 ft 181 kts 347°
2026-04-21 23:36 36.25008 120.11894 1951 ft 183 kts 346°
2026-04-21 23:37 36.26204 120.11429 1710 ft 180 kts 346°
2026-04-21 23:37 36.27402 120.10963 1467 ft 179 kts 346°
2026-04-21 23:37 36.28575 120.10504 1225 ft 171 kts 345°
2026-04-21 23:37 36.29669 120.10078 1009 ft 160 kts 345°
2026-04-21 23:38 36.30721 120.09673 780 ft 156 kts 345°
2026-04-21 23:38 36.31751 120.09263 561 ft 152 kts 343°
2026-04-21 23:38 36.32755 120.08866 364 ft 150 kts 345°
2026-04-21 23:38 36.33749 120.08491 159 ft 149 kts 342°
2026-04-21 23:39 36.34713 120.08106 57 ft 130 kts 342°
2026-04-21 23:39 36.35434 120.07819 51 ft 87 kts 342°
2026-04-21 23:39 36.35900 120.07635 43 ft 59 kts 342°
2026-04-21 23:39 36.36204 120.07553 39 ft 28 kts
2026-04-21 23:40 36.36350 120.07583 38 ft 11 kts 25°
2026-04-21 23:40 36.36384 120.07665 37 ft 12 kts 76°
2026-04-21 23:40 36.36413 120.07797 36 ft 18 kts 73°
2026-04-21 23:40 36.36451 120.07945 36 ft 17 kts 72°
2026-04-21 23:41 36.36481 120.08083 36 ft 15 kts 87°
2026-04-21 23:41 36.36469 120.08201 39 ft 12 kts 103°
2026-04-21 23:41 36.36446 120.08301 39 ft 11 kts 111°
2026-04-21 23:41 36.36435 120.08383 39 ft 12 kts 82°
2026-04-21 23:42 36.36452 120.08483 39 ft 9 kts 74°
2026-04-21 23:42 36.36467 120.08544 39 ft 4 kts 73°
2026-04-21 23:42 36.36470 120.08554 39 ft 0 kts 73°